This is the latest recevied weather packets stored in our database for station/object AI5YA-13. If no packets are shown the sender has not sent any weather packets the latest 10 day(s).
| Time | Temp. | Humidity | Pressure | Rain* | Wind** | Luminosity | Snow |
|---|---|---|---|---|---|---|---|
| 1777758938 | 18.89° C | 46% | 1022 hPa | 0 mm | - | 637 W/m² | - |
| 1777758635 | 18.89° C | 46% | 1021.8 hPa | 0 mm | - | 271 W/m² | - |
| 1777758332 | 18.89° C | 45% | 1022 hPa | 0 mm | - | 249 W/m² | - |
| 1777758029 | 18.89° C | 46% | 1022 hPa | 0 mm | - | 237 W/m² | - |
| 1777757726 | 18.89° C | 45% | 1022.2 hPa | 0 mm | - | 282 W/m² | - |
| 1777757424 | 18.89° C | 42% | 1022.2 hPa | 0 mm | - | 275 W/m² | - |
| 1777757122 | 20° C | 42% | 1022.4 hPa | 0 mm | - | 278 W/m² | - |
| 1777756820 | 19.44° C | 42% | 1022.2 hPa | 0 mm | - | 292 W/m² | - |
| 1777756515 | 19.44° C | 44% | 1022.3 hPa | 0 mm | - | 310 W/m² | - |
| 1777756213 | 19.44° C | 44% | 1022.5 hPa | 0 mm | - | 279 W/m² | - |
| 1777755909 | 19.44° C | 44% | 1022.6 hPa | 0 mm | - | 301 W/m² | - |
| 1777755607 | 18.89° C | 44% | 1022.5 hPa | 0 mm | - | 269 W/m² | - |
| 1777755303 | 18.89° C | 44% | 1022.9 hPa | 0 mm | - | 271 W/m² | - |
| 1777755000 | 18.89° C | 42% | 1022.6 hPa | 0 mm | - | 273 W/m² | - |
| 1777754697 | 19.44° C | 43% | 1022.9 hPa | 0 mm | - | 696 W/m² | - |
| 1777754395 | 21.11° C | 40% | 1023 hPa | 0 mm | - | 344 W/m² | - |
| 1777754091 | 20.56° C | 43% | 1022.7 hPa | 0 mm | - | 857 W/m² | - |
| 1777753788 | 19.44° C | 45% | 1022.9 hPa | 0 mm | - | 635 W/m² | - |
| 1777753485 | 19.44° C | 44% | 1023 hPa | 0 mm | - | 383 W/m² | - |
| 1777753183 | 19.44° C | 43% | 1023 hPa | 0 mm | - | 807 W/m² | - |
| 1777752878 | 19.44° C | 43% | 1023 hPa | 0 mm | - | 455 W/m² | - |
| 1777752576 | 18.89° C | 44% | 1023.2 hPa | 0 mm | - | 421 W/m² | - |
| 1777752271 | 18.33° C | 45% | 1023.3 hPa | 0 mm | - | 379 W/m² | - |
| 1777751969 | 18.33° C | 46% | 1023.3 hPa | 0 mm | - | 322 W/m² | - |
| 1777751666 | 19.44° C | 42% | 1023.4 hPa | 0 mm | - | 359 W/m² | - |
* Rain latest hour (hover to see other rain measurements)
** Current wind speed in m/s (hover to see current wind gust speed)